Location: Warszawa
(52.2500°N, 21.0000°E)
Time: 21:11:38
(UTC+02:00)

AO-91 - Pass Details

Date: 26 April 2024
Orbit: 441 x 737 km, 97.6° (Epoch: 20 May)

Event Time Altitude Azimuth Distance (km) Brightness Sun altitude
Rises 22:46:13 0° 10° (N) 2,448 ? -19.9°
Reaches altitude 10° 22:48:14 10° 6° (N) 1,576 ? -20.0°
Maximum altitude 22:51:31 57° 288° (WNW) 541 ? -20.3°
Enters shadow 22:52:18 43° 237° (WSW) 649 ? -20.3°
